This demonstration page uses our WeatherBlox Daily Observations layout. Learn more.

Left ArrowRight Arrow

44.8408, -93.29828

Hourly Observations for July 14, 2017

Temp ( °F °C ) Dew Point ( °F °C ) Humidity (%) Winds ( mph kmh ) Pressure ( in mb ) Visibility ( mi km ) Precip ( " mm )
12:53 am 00:53 Cloudy 62 16.7 53 11.7 73 73 N 6 9 30.18 1022 10 16 0.00 0.00
1:53 am 01:53 Cloudy 62 16.7 53 11.7 73 73 N 5 7 30.18 1022 10 16 0.00 0.00
2:53 am 02:53 Cloudy 62 16.7 53 11.7 73 73 N 7 11 30.18 1022 10 16 0.00 0.00
3:53 am 03:53 Cloudy 61 16.1 53 11.7 75 75 NNE 7 11 30.18 1022 10 16 0.00 0.00
4:53 am 04:53 Mostly Cloudy 60 15.6 53 11.7 78 78 NNE 6 9 30.19 1022 10 16 0.00 0.00
5:53 am 05:53 Mostly Cloudy 60 15.6 54 12.2 80 80 NNE 3 6 30.19 1022 10 16 0.00 0.00
6:53 am 06:53 Mostly Cloudy 62 16.7 54 12.2 75 75 NNE 6 9 30.20 1023 10 16 0.00 0.00
7:28 am 07:28 Cloudy 62 16.7 53 11.7 73 73 NE 7 11 30.18 1022 10 16 0.00 0.00
7:53 am 07:53 Cloudy 62 16.7 52 11.1 70 70 NE 5 7 30.22 1023 10 16 0.00 0.00
8:53 am 08:53 Mostly Cloudy 65 18.3 53 11.7 66 66 VRB 3 6 30.22 1023 10 16 0.00 0.00
9:02 am 09:02 Mostly Cloudy 65 18.3 53 11.7 66 66 ENE 3 6 30.18 1022 10 16 0.00 0.00
9:53 am 09:53 Cloudy 66 18.9 52 11.1 61 61 NE 5 7 30.22 1023 10 16 0.00 0.00
10:53 am 10:53 Cloudy 68 20 53 11.7 59 59 NNE 5 7 30.21 1023 10 16 0.00 0.00
11:12 am 11:12 Cloudy 68 20 53 11.7 59 59 Calm 30.18 1022 10 16 0.00 0.00
11:53 am 11:53 Cloudy 69 20.6 53 11.7 57 57 N 6 9 30.21 1023 10 16 0.00 0.00
12:53 pm 12:53 Mostly Cloudy 74 23.3 54 12.2 50 50 NE 7 11 30.19 1022 10 16 0.00 0.00
1:53 pm 13:53 Partly Cloudy 72 22.2 54 12.2 53 53 WNW 6 9 30.19 1022 10 16 0.00 0.00
2:53 pm 14:53 Partly Cloudy 74 23.3 55 12.8 52 52 VRB 5 7 30.18 1022 10 16 0.00 0.00
3:53 pm 15:53 Partly Cloudy 77 25 56 13.3 48 48 VRB 3 6 30.17 1022 10 16 0.00 0.00
4:53 pm 16:53 Partly Cloudy 76 24.4 55 12.8 48 48 Calm 30.16 1021 10 16 0.00 0.00
5:53 pm 17:53 Mostly Sunny 76 24.4 56 13.3 50 50 SSW 6 9 30.14 1021 10 16 0.00 0.00
6:53 pm 18:53 Sunny 75 23.9 56 13.3 52 52 VRB 5 7 30.13 1020 10 16 0.00 0.00
7:53 pm 19:53 Sunny 74 23.3 56 13.3 54 54 WSW 7 11 30.11 1020 10 16 0.00 0.00
8:53 pm 20:53 Sunny 72 22.2 56 13.3 57 57 SW 7 11 30.10 1019 10 16 0.00 0.00
9:53 pm 21:53 Clear 72 22.2 57 13.9 59 59 SW 5 7 30.11 1020 10 16 0.00 0.00
10:53 pm 22:53 Mostly Clear 70 21.1 57 13.9 64 64 SW 6 9 30.12 1020 10 16 0.00 0.00
11:53 pm 23:53 Mostly Clear 68 20 57 13.9 68 68 SSW 5 7 30.13 1020 10 16 0.00 0.00

Powered by AerisWeather